Time,TemperatureF,DewpointF,PressureIn,WindDirection,WindDirectionDegrees,WindSpeedMPH,WindSpeedGustMPH,Humidity,HourlyPrecipIn,Conditions,Clouds,dailyrainin,SoftwareType,DateUTC
2013-06-15 00:01:00,56.2,54.5,29.53,North,355,1.0,1.1,94,0.00,RA,SCT,0.00,WeatherDisplay:10.37,2013-06-15 04:01:00,
2013-06-15 00:06:00,56.2,54.5,29.53,North,355,0.1,1.0,94,0.00,RA,SCT,0.00,WeatherDisplay:10.37,2013-06-15 04:06:00,
2013-06-15 00:11:00,56.3,54.9,29.53,North,5,0.1,1.1,95,0.00,CLR,SCT,0.00,WeatherDisplay:10.37,2013-06-15 04:11:00,
2013-06-15 00:16:00,56.3,54.9,29.53,North,5,0.0,0.0,95,0.00,CLR,SCT,0.00,WeatherDisplay:10.37,2013-06-15 04:16:00,
2013-06-15 00:21:00,56.2,54.8,29.53,North,5,0.0,0.0,95,0.00,CLR,SCT,0.00,WeatherDisplay:10.37,2013-06-15 04:21:00,
2013-06-15 00:26:00,56.1,54.4,29.53,North,5,0.0,0.0,94,0.00,CLR,SCT,0.00,WeatherDisplay:10.37,2013-06-15 04:26:00,
2013-06-15 00:31:00,56.0,54.6,29.53,North,5,0.1,0.0,95,0.00,CLR,SCT,0.00,WeatherDisplay:10.37,2013-06-15 04:31:00,
2013-06-15 00:36:00,55.9,54.5,29.53,NE,34,0.0,0.0,95,0.00,CLR,SCT,0.00,WeatherDisplay:10.37,2013-06-15 04:36:00,
2013-06-15 00:41:00,55.8,54.4,29.54,NE,34,0.0,0.0,95,0.00,CLR,SCT,0.00,WeatherDisplay:10.37,2013-06-15 04:41:00,
2013-06-15 00:46:00,55.9,54.5,29.54,NE,34,0.0,1.1,95,0.00,CLR,SCT,0.00,WeatherDisplay:10.37,2013-06-15 04:46:00,
2013-06-15 00:51:00,56.0,54.6,29.54,NE,34,0.1,1.1,95,0.00,CLR,SCT,0.00,WeatherDisplay:10.37,2013-06-15 04:51:00,
2013-06-15 00:56:00,56.2,54.8,29.53,NE,34,1.0,2.3,95,0.00,CLR,SCT,0.00,WeatherDisplay:10.37,2013-06-15 04:56:00,
2013-06-15 01:01:00,56.4,55.0,29.53,East,80,0.5,2.3,95,0.00,CLR,SCT,0.00,WeatherDisplay:10.37,2013-06-15 05:01:00,
2013-06-15 01:06:00,56.6,55.2,29.53,NE,34,0.4,1.1,95,0.00,CLR,SCT,0.00,WeatherDisplay:10.37,2013-06-15 05:06:00,
2013-06-15 01:11:00,56.8,55.1,29.54,NNE,29,0.6,2.3,94,0.00,CLR,SCT,0.00,WeatherDisplay:10.37,2013-06-15 05:11:00,
2013-06-15 01:16:00,56.9,55.2,29.54,North,360,0.1,2.3,94,0.00,CLR,SCT,0.00,WeatherDisplay:10.37,2013-06-15 05:16:00,
2013-06-15 01:21:00,57.0,55.3,29.54,North,360,0.0,0.0,94,0.00,CLR,SCT,0.00,WeatherDisplay:10.37,2013-06-15 05:21:00,
2013-06-15 01:26:00,57.0,55.3,29.54,North,5,0.1,1.0,94,0.00,CLR,SCT,0.00,WeatherDisplay:10.37,2013-06-15 05:26:00,
2013-06-15 01:31:00,56.9,55.2,29.54,North,5,0.3,1.1,94,0.00,CLR,SCT,0.00,WeatherDisplay:10.37,2013-06-15 05:31:00,
2013-06-15 01:36:00,56.9,55.2,29.54,North,351,0.7,1.1,94,0.00,CLR,SCT,0.00,WeatherDisplay:10.37,2013-06-15 05:36:00,
2013-06-15 01:41:00,56.9,55.2,29.54,North,351,0.0,0.0,94,0.00,CLR,SCT,0.00,WeatherDisplay:10.37,2013-06-15 05:41:00,
2013-06-15 01:46:00,56.9,55.2,29.54,North,355,0.3,2.3,94,0.00,CLR,SCT,0.00,WeatherDisplay:10.37,2013-06-15 05:46:00,
2013-06-15 01:51:00,56.9,55.2,29.54,NNE,13,0.5,2.3,94,0.00,CLR,SCT,0.00,WeatherDisplay:10.37,2013-06-15 05:51:00,
2013-06-15 01:56:00,57.0,55.0,29.54,North,355,0.8,2.3,93,0.00,CLR,SCT,0.00,WeatherDisplay:10.37,2013-06-15 05:56:00,
2013-06-15 02:01:00,56.9,54.9,29.54,North,5,1.6,2.3,93,0.00,CLR,SCT,0.00,WeatherDisplay:10.37,2013-06-15 06:01:00,
2013-06-15 02:06:00,57.0,55.0,29.54,North,9,1.0,2.3,93,0.00,CLR,SCT,0.00,WeatherDisplay:10.37,2013-06-15 06:06:00,
2013-06-15 02:11:00,57.1,55.1,29.54,WNW,291,1.0,2.3,93,0.00,CLR,SCT,0.00,WeatherDisplay:10.37,2013-06-15 06:11:00,
2013-06-15 02:16:00,57.1,55.1,29.55,WNW,292,0.0,0.0,93,0.00,CLR,SCT,0.00,WeatherDisplay:10.37,2013-06-15 06:16:00,
2013-06-15 02:21:00,57.1,55.1,29.55,WNW,292,0.2,1.1,93,0.00,CLR,SCT,0.00,WeatherDisplay:10.37,2013-06-15 06:21:00,
2013-06-15 02:26:00,57.0,55.0,29.55,WNW,292,0.1,0.0,93,0.00,CLR,SCT,0.00,WeatherDisplay:10.37,2013-06-15 06:26:00,
2013-06-15 02:31:00,56.9,54.9,29.55,North,5,1.0,2.3,93,0.00,CLR,SCT,0.00,WeatherDisplay:10.37,2013-06-15 06:31:00,
2013-06-15 02:36:00,57.1,55.1,29.56,North,350,0.8,2.3,93,0.00,CLR,SCT,0.00,WeatherDisplay:10.37,2013-06-15 06:36:00,
2013-06-15 02:41:00,57.3,55.0,29.56,NNE,17,0.0,1.1,92,0.00,CLR,SCT,0.00,WeatherDisplay:10.37,2013-06-15 06:41:00,
2013-06-15 02:46:00,57.3,55.0,29.56,NNE,18,0.4,1.1,92,0.00,CLR,SCT,0.00,WeatherDisplay:10.37,2013-06-15 06:46:00,
2013-06-15 02:51:00,57.2,55.2,29.56,North,5,0.3,1.1,93,0.00,CLR,SCT,0.00,WeatherDisplay:10.37,2013-06-15 06:51:00,
2013-06-15 02:56:00,56.9,54.9,29.57,East,100,1.1,3.5,93,0.00,CLR,SCT,0.00,WeatherDisplay:10.37,2013-06-15 06:56:00,
2013-06-15 03:01:00,56.7,54.7,29.57,East,100,0.0,0.0,93,0.00,CLR,SCT,0.00,WeatherDisplay:10.37,2013-06-15 07:01:00,
2013-06-15 03:06:00,56.4,54.7,29.57,East,84,0.4,2.3,94,0.00,CLR,SCT,0.00,WeatherDisplay:10.37,2013-06-15 07:06:00,
2013-06-15 03:11:00,56.5,54.8,29.57,SE,139,0.0,2.3,94,0.00,CLR,SCT,0.00,WeatherDisplay:10.37,2013-06-15 07:11:00,
2013-06-15 03:16:00,56.6,54.9,29.57,NNW,346,0.0,0.0,94,0.00,CLR,SCT,0.00,WeatherDisplay:10.37,2013-06-15 07:16:00,
2013-06-15 03:21:00,56.6,54.9,29.56,NNW,346,0.0,0.0,94,0.00,CLR,SCT,0.00,WeatherDisplay:10.37,2013-06-15 07:21:00,
2013-06-15 03:26:00,56.5,54.8,29.57,NNW,346,0.0,0.0,94,0.00,CLR,SCT,0.00,WeatherDisplay:10.37,2013-06-15 07:26:00,
2013-06-15 03:31:00,56.3,54.6,29.57,NE,49,0.0,1.1,94,0.00,CLR,SCT,0.00,WeatherDisplay:10.37,2013-06-15 07:31:00,
2013-06-15 03:36:00,56.4,54.7,29.57,North,360,0.0,0.0,94,0.00,CLR,SCT,0.00,WeatherDisplay:10.37,2013-06-15 07:36:00,
2013-06-15 03:41:00,56.3,54.6,29.57,NE,53,0.4,1.1,94,0.00,CLR,SCT,0.00,WeatherDisplay:10.37,2013-06-15 07:41:00,
2013-06-15 03:46:00,56.2,54.5,29.57,NE,56,0.0,0.0,94,0.00,CLR,SCT,0.00,WeatherDisplay:10.37,2013-06-15 07:46:00,
2013-06-15 03:51:00,56.0,54.3,29.57,NE,56,0.1,1.0,94,0.00,CLR,SCT,0.00,WeatherDisplay:10.37,2013-06-15 07:51:00,
2013-06-15 03:56:00,55.8,54.4,29.57,NE,56,0.0,0.0,95,0.00,CLR,SCT,0.00,WeatherDisplay:10.37,2013-06-15 07:56:00,
2013-06-15 04:01:00,55.6,54.2,29.57,NE,56,0.0,0.0,95,0.00,CLR,SCT,0.00,WeatherDisplay:10.37,2013-06-15 08:01:00,
2013-06-15 04:06:00,55.5,54.1,29.57,NE,56,0.0,0.0,95,0.00,CLR,SCT,0.00,WeatherDisplay:10.37,2013-06-15 08:06:00,
2013-06-15 04:11:00,55.4,54.0,29.57,NE,56,0.0,0.0,95,0.00,CLR,SCT,0.00,WeatherDisplay:10.37,2013-06-15 08:11:00,
2013-06-15 04:16:00,55.3,53.9,29.57,NE,56,0.0,0.0,95,0.00,CLR,SCT,0.00,WeatherDisplay:10.37,2013-06-15 08:16:00,
2013-06-15 04:21:00,55.3,53.9,29.57,NE,56,0.0,0.0,95,0.00,CLR,SCT,0.00,WeatherDisplay:10.37,2013-06-15 08:21:00,
2013-06-15 04:26:00,55.2,53.8,29.57,NE,56,0.0,0.0,95,0.00,CLR,SCT,0.00,WeatherDisplay:10.37,2013-06-15 08:26:00,
2013-06-15 04:31:00,55.1,53.7,29.57,NE,56,0.0,1.1,95,0.00,CLR,SCT,0.00,WeatherDisplay:10.37,2013-06-15 08:31:00,
2013-06-15 04:36:00,55.1,54.0,29.57,NE,56,0.0,0.0,96,0.00,CLR,SCT,0.00,WeatherDisplay:10.37,2013-06-15 08:36:00,
2013-06-15 04:41:00,54.9,53.8,29.57,NE,56,0.0,0.0,96,0.00,CLR,SCT,0.00,WeatherDisplay:10.37,2013-06-15 08:41:00,
2013-06-15 04:46:00,54.7,53.6,29.57,NE,56,0.0,0.0,96,0.00,CLR,SCT,0.00,WeatherDisplay:10.37,2013-06-15 08:46:00,
2013-06-15 04:51:00,54.5,53.4,29.57,NE,56,0.0,0.0,96,0.00,CLR,SCT,0.00,WeatherDisplay:10.37,2013-06-15 08:51:00,
2013-06-15 04:56:00,54.4,53.3,29.57,NE,56,0.0,0.0,96,0.00,CLR,SCT,0.00,WeatherDisplay:10.37,2013-06-15 08:56:00,
2013-06-15 05:01:00,54.2,53.1,29.58,NE,56,0.0,1.1,96,0.00,CLR,SCT,0.00,WeatherDisplay:10.37,2013-06-15 09:01:00,
2013-06-15 05:06:00,54.0,52.9,29.58,NE,56,0.0,1.1,96,0.00,CLR,SCT,0.00,WeatherDisplay:10.37,2013-06-15 09:06:00,
2013-06-15 05:11:00,53.9,53.1,29.58,NE,56,0.0,0.0,97,0.00,CLR,SCT,0.00,WeatherDisplay:10.37,2013-06-15 09:11:00,
2013-06-15 05:16:00,53.9,53.1,29.59,NE,56,0.0,0.0,97,0.00,CLR,SCT,0.00,WeatherDisplay:10.37,2013-06-15 09:16:00,
2013-06-15 05:21:00,53.9,53.1,29.59,NE,56,0.0,0.0,97,0.00,CLR,SCT,0.00,WeatherDisplay:10.37,2013-06-15 09:21:00,
2013-06-15 05:26:00,53.9,53.1,29.59,NE,56,0.1,1.1,97,0.00,CLR,SCT,0.00,WeatherDisplay:10.37,2013-06-15 09:26:00,
2013-06-15 05:31:00,53.8,53.0,29.59,NE,56,0.0,0.0,97,0.00,CLR,SCT,0.00,WeatherDisplay:10.37,2013-06-15 09:31:00,
2013-06-15 05:36:00,53.8,53.0,29.59,NE,56,0.0,0.0,97,0.00,CLR,SCT,0.00,WeatherDisplay:10.37,2013-06-15 09:36:00,
2013-06-15 05:41:00,53.7,52.9,29.59,NE,56,0.0,0.0,97,0.00,CLR,SCT,0.00,WeatherDisplay:10.37,2013-06-15 09:41:00,
2013-06-15 05:46:00,53.7,52.9,29.59,NE,56,0.0,0.0,97,0.00,CLR,SCT,0.00,WeatherDisplay:10.37,2013-06-15 09:46:00,
2013-06-15 05:51:00,53.7,52.9,29.59,NE,56,0.0,0.0,97,0.00,CLR,SCT,0.00,WeatherDisplay:10.37,2013-06-15 09:51:00,
2013-06-15 05:56:00,53.7,52.9,29.59,NE,56,0.0,0.0,97,0.00,CLR,SCT,0.00,WeatherDisplay:10.37,2013-06-15 09:56:00,
2013-06-15 06:01:00,53.7,52.9,29.59,NE,56,0.0,0.0,97,0.00,CLR,SCT,0.00,WeatherDisplay:10.37,2013-06-15 10:01:00,
2013-06-15 06:06:00,53.8,53.0,29.59,NE,56,0.0,0.0,97,0.00,CLR,SCT,0.00,WeatherDisplay:10.37,2013-06-15 10:06:00,
2013-06-15 06:11:00,53.9,53.1,29.59,NE,56,0.0,0.0,97,0.00,CLR,SCT,0.00,WeatherDisplay:10.37,2013-06-15 10:11:00,
2013-06-15 06:16:00,54.0,53.2,29.60,NE,56,0.0,0.0,97,0.00,CLR,SCT,0.00,WeatherDisplay:10.37,2013-06-15 10:16:00,
2013-06-15 06:21:00,54.0,53.2,29.60,NE,56,0.0,0.0,97,0.00,CLR,SCT,0.00,WeatherDisplay:10.37,2013-06-15 10:21:00,
2013-06-15 06:26:00,54.1,53.3,29.60,NE,56,0.0,0.0,97,0.00,CLR,SCT,0.00,WeatherDisplay:10.37,2013-06-15 10:26:00,
2013-06-15 06:31:00,54.1,53.3,29.60,NE,56,0.0,0.0,97,0.00,CLR,SCT,0.00,WeatherDisplay:10.37,2013-06-15 10:31:00,
2013-06-15 06:36:00,54.2,53.4,29.60,NE,56,0.0,0.0,97,0.00,CLR,SCT,0.00,WeatherDisplay:10.37,2013-06-15 10:36:00,
2013-06-15 06:41:00,54.3,53.5,29.60,NE,56,0.0,0.0,97,0.00,CLR,SCT,0.00,WeatherDisplay:10.37,2013-06-15 10:41:00,
2013-06-15 06:46:00,54.5,53.7,29.60,NE,56,0.0,0.0,97,0.00,CLR,SCT,0.00,WeatherDisplay:10.37,2013-06-15 10:46:00,
2013-06-15 06:51:00,54.6,53.8,29.60,NE,56,0.0,0.0,97,0.00,CLR,SCT,0.00,WeatherDisplay:10.37,2013-06-15 10:51:00,
2013-06-15 06:56:00,54.9,54.1,29.61,NE,56,0.0,0.0,97,0.00,CLR,SCT,0.00,WeatherDisplay:10.37,2013-06-15 10:56:00,
2013-06-15 07:01:00,55.1,54.3,29.61,NE,56,0.0,0.0,97,0.00,CLR,SCT,0.00,WeatherDisplay:10.37,2013-06-15 11:01:00,
2013-06-15 07:06:00,55.3,54.2,29.61,NE,56,0.0,0.0,96,0.00,CLR,SCT,0.00,WeatherDisplay:10.37,2013-06-15 11:06:00,
2013-06-15 07:11:00,55.7,54.6,29.61,NE,56,0.0,0.0,96,0.00,CLR,SCT,0.00,WeatherDisplay:10.37,2013-06-15 11:11:00,
2013-06-15 07:16:00,55.9,54.8,29.61,NE,56,0.0,0.0,96,0.00,CLR,SCT,0.00,WeatherDisplay:10.37,2013-06-15 11:16:00,
2013-06-15 07:21:00,56.3,54.9,29.61,NE,56,0.0,1.1,95,0.00,CLR,SCT,0.00,WeatherDisplay:10.37,2013-06-15 11:21:00,
2013-06-15 07:26:00,56.7,55.0,29.61,NE,56,0.0,0.0,94,0.00,CLR,SCT,0.00,WeatherDisplay:10.37,2013-06-15 11:26:00,
2013-06-15 07:31:00,57.2,55.2,29.62,NE,51,0.0,1.1,93,0.00,CLR,SCT,0.00,WeatherDisplay:10.37,2013-06-15 11:31:00,
2013-06-15 07:36:00,57.7,55.4,29.62,NE,51,0.0,0.0,92,0.00,CLR,SCT,0.00,WeatherDisplay:10.37,2013-06-15 11:36:00,
2013-06-15 07:41:00,58.1,55.8,29.62,NE,51,0.0,0.0,92,0.00,CLR,SCT,0.00,WeatherDisplay:10.37,2013-06-15 11:41:00,
2013-06-15 07:46:00,58.3,55.7,29.62,NE,51,0.0,0.0,91,0.00,CLR,SCT,0.00,WeatherDisplay:10.37,2013-06-15 11:46:00,
2013-06-15 07:51:00,58.9,55.7,29.62,NE,51,0.0,0.0,89,0.00,CLR,SCT,0.00,WeatherDisplay:10.37,2013-06-15 11:51:00,
2013-06-15 07:56:00,59.4,55.8,29.62,NE,51,0.0,0.0,88,0.00,CLR,SCT,0.00,WeatherDisplay:10.37,2013-06-15 11:56:00,
2013-06-15 08:01:00,59.6,55.7,29.62,NE,51,0.0,0.0,87,0.00,CLR,SCT,0.00,WeatherDisplay:10.37,2013-06-15 12:01:00,
2013-06-15 08:06:00,59.9,56.0,29.63,NE,51,0.0,1.1,87,0.00,CLR,SCT,0.00,WeatherDisplay:10.37,2013-06-15 12:06:00,
2013-06-15 08:11:00,60.2,56.0,29.63,NE,50,0.2,0.0,86,0.00,CLR,SCT,0.00,WeatherDisplay:10.37,2013-06-15 12:11:00,
2013-06-15 08:16:00,60.4,55.9,29.63,NE,50,0.0,0.0,85,0.00,CLR,SCT,0.00,WeatherDisplay:10.37,2013-06-15 12:16:00,
2013-06-15 08:21:00,60.4,56.5,29.63,NE,50,0.0,0.0,87,0.00,CLR,SCT,0.00,WeatherDisplay:10.37,2013-06-15 12:21:00,
2013-06-15 08:26:00,60.5,56.6,29.63,NE,50,0.1,1.0,87,0.00,CLR,SCT,0.00,WeatherDisplay:10.37,2013-06-15 12:26:00,
2013-06-15 08:31:00,60.8,56.6,29.64,NE,50,0.0,0.0,86,0.00,CLR,SCT,0.00,WeatherDisplay:10.37,2013-06-15 12:31:00,
2013-06-15 08:36:00,60.9,57.0,29.64,NE,50,0.0,0.0,87,0.00,CLR,SCT,0.00,WeatherDisplay:10.37,2013-06-15 12:36:00,
2013-06-15 08:41:00,60.7,56.2,29.64,NE,50,0.0,0.0,85,0.00,CLR,SCT,0.00,WeatherDisplay:10.37,2013-06-15 12:41:00,
2013-06-15 08:46:00,60.9,56.4,29.64,NE,50,0.0,1.1,85,0.00,CLR,SCT,0.00,WeatherDisplay:10.37,2013-06-15 12:46:00,
2013-06-15 08:51:00,61.2,57.0,29.65,NE,50,0.0,0.0,86,0.00,CLR,SCT,0.00,WeatherDisplay:10.37,2013-06-15 12:51:00,
2013-06-15 08:56:00,61.7,57.5,29.65,NE,50,0.3,1.1,86,0.00,CLR,SCT,0.00,WeatherDisplay:10.37,2013-06-15 12:56:00,
2013-06-15 09:01:00,62.5,55.5,29.65,North,355,1.1,4.6,78,0.00,CLR,SCT,0.00,WeatherDisplay:10.37,2013-06-15 13:01:00,
2013-06-15 09:06:00,63.2,56.6,29.65,North,355,0.3,1.1,79,0.00,CLR,SCT,0.00,WeatherDisplay:10.37,2013-06-15 13:06:00,
2013-06-15 09:11:00,63.5,55.8,29.65,ESE,103,0.9,4.6,76,0.00,CLR,SCT,0.00,WeatherDisplay:10.37,2013-06-15 13:11:00,
2013-06-15 09:16:00,63.6,55.5,29.66,South,177,0.1,1.1,75,0.00,CLR,SCT,0.00,WeatherDisplay:10.37,2013-06-15 13:16:00,
2013-06-15 09:21:00,64.0,55.5,29.65,SSW,207,0.2,1.1,74,0.00,CLR,SCT,0.00,WeatherDisplay:10.37,2013-06-15 13:21:00,
2013-06-15 09:26:00,64.3,56.9,29.65,SSW,207,0.0,1.1,77,0.00,CLR,SCT,0.00,WeatherDisplay:10.37,2013-06-15 13:26:00,
2013-06-15 09:31:00,64.4,56.7,29.65,SSW,207,0.0,0.0,76,0.00,CLR,SCT,0.00,WeatherDisplay:10.37,2013-06-15 13:31:00,
2013-06-15 09:36:00,64.8,56.3,29.66,SE,134,0.7,1.1,74,0.00,CLR,SCT,0.00,WeatherDisplay:10.37,2013-06-15 13:36:00,
2013-06-15 09:41:00,64.8,56.7,29.66,South,182,0.0,1.1,75,0.00,CLR,SCT,0.00,WeatherDisplay:10.37,2013-06-15 13:41:00,
2013-06-15 09:46:00,64.9,56.0,29.66,South,182,0.1,1.0,73,0.00,CLR,SCT,0.00,WeatherDisplay:10.37,2013-06-15 13:46:00,
2013-06-15 09:51:00,65.2,58.2,29.66,North,11,0.0,0.0,78,0.00,CLR,SCT,0.00,WeatherDisplay:10.37,2013-06-15 13:51:00,
2013-06-15 09:56:00,65.4,57.3,29.66,NE,35,0.7,1.1,75,0.00,CLR,SCT,0.00,WeatherDisplay:10.37,2013-06-15 13:56:00,
2013-06-15 10:01:00,65.6,58.6,29.66,NE,36,0.1,1.1,78,0.00,CLR,SCT,0.00,WeatherDisplay:10.37,2013-06-15 14:01:00,
2013-06-15 10:06:00,65.9,57.7,29.65,North,350,1.6,5.0,75,0.00,CLR,SCT,0.00,WeatherDisplay:10.37,2013-06-15 14:06:00,
2013-06-15 10:11:00,66.3,56.2,29.65,NNE,26,2.3,4.0,70,0.00,CLR,SCT,0.00,WeatherDisplay:10.37,2013-06-15 14:11:00,
2013-06-15 10:16:00,66.8,58.6,29.65,North,5,0.3,1.1,75,0.00,CLR,SCT,0.00,WeatherDisplay:10.37,2013-06-15 14:16:00,
2013-06-15 10:21:00,67.1,56.2,29.65,NE,34,1.5,2.3,68,0.00,CLR,SCT,0.00,WeatherDisplay:10.37,2013-06-15 14:21:00,
2013-06-15 10:26:00,67.4,58.1,29.65,NNE,28,0.4,1.1,72,0.00,CLR,SCT,0.00,WeatherDisplay:10.37,2013-06-15 14:26:00,
2013-06-15 10:31:00,68.0,57.4,29.64,NNE,30,0.2,1.1,69,0.00,CLR,SCT,0.00,WeatherDisplay:10.37,2013-06-15 14:31:00,
2013-06-15 10:36:00,68.1,56.7,29.64,ESE,113,0.0,2.3,67,0.00,CLR,SCT,0.00,WeatherDisplay:10.37,2013-06-15 14:36:00,
2013-06-15 10:41:00,68.9,57.5,29.64,North,5,0.8,2.3,67,0.00,CLR,SCT,0.00,WeatherDisplay:10.37,2013-06-15 14:41:00,
2013-06-15 10:46:00,67.9,57.8,29.64,NE,34,0.1,1.1,70,0.00,CLR,SCT,0.00,WeatherDisplay:10.37,2013-06-15 14:46:00,
2013-06-15 10:51:00,68.2,59.2,29.64,NNW,346,0.8,1.1,73,0.00,CLR,SCT,0.00,WeatherDisplay:10.37,2013-06-15 14:51:00,
2013-06-15 10:56:00,69.0,53.6,29.64,NNE,20,0.0,4.6,58,0.00,CLR,SCT,0.00,WeatherDisplay:10.37,2013-06-15 14:56:00,
2013-06-15 11:01:00,69.2,54.3,29.65,NNE,28,0.0,0.0,59,0.00,CLR,SCT,0.00,WeatherDisplay:10.37,2013-06-15 15:01:00,
2013-06-15 11:06:00,68.3,59.3,29.64,NE,39,0.0,0.0,73,0.00,CLR,SCT,0.00,WeatherDisplay:10.37,2013-06-15 15:06:00,
2013-06-15 11:11:00,68.5,55.4,29.64,South,178,0.0,0.0,63,0.00,CLR,SCT,0.00,WeatherDisplay:10.37,2013-06-15 15:11:00,
2013-06-15 11:16:00,69.0,55.9,29.64,SSW,201,0.0,0.0,63,0.00,CLR,SCT,0.00,WeatherDisplay:10.37,2013-06-15 15:16:00,
2013-06-15 11:21:00,68.8,57.4,29.64,WNW,290,0.0,0.0,67,0.00,CLR,SCT,0.00,WeatherDisplay:10.37,2013-06-15 15:21:00,
2013-06-15 11:26:00,69.2,52.3,29.64,North,5,0.0,3.5,55,0.00,CLR,SCT,0.00,WeatherDisplay:10.37,2013-06-15 15:26:00,
2013-06-15 11:31:00,68.8,55.7,29.64,SSE,167,0.0,0.0,63,0.00,CLR,SCT,0.00,WeatherDisplay:10.37,2013-06-15 15:31:00,
2013-06-15 11:36:00,69.5,57.2,29.65,NNW,348,0.0,0.0,65,0.00,CLR,SCT,0.00,WeatherDisplay:10.37,2013-06-15 15:36:00,
2013-06-15 11:41:00,70.1,55.6,29.65,West,273,0.0,4.6,60,0.00,CLR,SCT,0.00,WeatherDisplay:10.37,2013-06-15 15:41:00,
2013-06-15 11:46:00,69.8,55.3,29.65,North,355,0.5,2.3,60,0.00,CLR,SCT,0.00,WeatherDisplay:10.37,2013-06-15 15:46:00,
2013-06-15 11:51:00,69.5,52.1,29.65,NNW,327,0.8,3.0,54,0.00,CLR,SCT,0.00,WeatherDisplay:10.37,2013-06-15 15:51:00,
2013-06-15 11:56:00,70.3,52.9,29.65,NNE,17,0.7,6.0,54,0.00,CLR,SCT,0.00,WeatherDisplay:10.37,2013-06-15 15:56:00,
2013-06-15 12:01:00,71.2,53.2,29.65,North,360,0.3,0.0,53,0.00,CLR,SCT,0.00,WeatherDisplay:10.37,2013-06-15 16:01:00,
2013-06-15 12:06:00,70.5,55.0,29.65,ESE,118,0.0,1.1,58,0.00,CLR,SCT,0.00,WeatherDisplay:10.37,2013-06-15 16:06:00,
2013-06-15 12:11:00,69.9,54.4,29.65,WNW,283,0.0,3.5,58,0.00,CLR,SCT,0.00,WeatherDisplay:10.37,2013-06-15 16:11:00,
2013-06-15 12:16:00,71.0,51.4,29.64,NW,316,1.6,1.6,50,0.00,CLR,SCT,0.00,WeatherDisplay:10.37,2013-06-15 16:16:00,
2013-06-15 12:21:00,71.2,51.6,29.64,NE,35,1.7,7.0,50,0.00,CLR,SCT,0.00,WeatherDisplay:10.37,2013-06-15 16:21:00,
2013-06-15 12:26:00,72.1,55.5,29.64,NNW,344,0.0,0.0,56,0.00,CLR,SCT,0.00,WeatherDisplay:10.37,2013-06-15 16:26:00,
2013-06-15 12:31:00,71.8,56.2,29.63,NW,304,0.1,0.0,58,0.00,CLR,SCT,0.00,WeatherDisplay:10.37,2013-06-15 16:31:00,
2013-06-15 12:36:00,72.1,52.4,29.63,ENE,72,0.3,1.1,50,0.00,CLR,SCT,0.00,WeatherDisplay:10.37,2013-06-15 16:36:00,
2013-06-15 12:41:00,71.3,54.8,29.63,NNW,330,0.0,1.1,56,0.00,CLR,SCT,0.00,WeatherDisplay:10.37,2013-06-15 16:41:00,
2013-06-15 12:46:00,70.6,52.6,29.63,WNW,302,1.1,8.1,53,0.00,CLR,SCT,0.00,WeatherDisplay:10.37,2013-06-15 16:46:00,
2013-06-15 12:51:00,71.2,54.7,29.63,NNW,341,0.0,2.3,56,0.00,CLR,SCT,0.00,WeatherDisplay:10.37,2013-06-15 16:51:00,
2013-06-15 12:56:00,72.6,52.9,29.63,North,5,0.0,1.1,50,0.00,CLR,SCT,0.00,WeatherDisplay:10.37,2013-06-15 16:56:00,
2013-06-15 13:01:00,72.9,52.1,29.63,North,5,2.5,4.6,48,0.00,CLR,SCT,0.00,WeatherDisplay:10.37,2013-06-15 17:01:00,
2013-06-15 13:06:00,73.1,52.2,29.63,ESE,122,1.1,2.3,48,0.00,CLR,SCT,0.00,WeatherDisplay:10.37,2013-06-15 17:06:00,
2013-06-15 13:11:00,73.1,53.4,29.63,ESE,114,0.3,4.0,50,0.00,CLR,SCT,0.00,WeatherDisplay:10.37,2013-06-15 17:11:00,
2013-06-15 13:16:00,72.5,54.9,29.63,NW,320,0.8,3.5,54,0.00,CLR,SCT,0.00,WeatherDisplay:10.37,2013-06-15 17:16:00,
2013-06-15 13:21:00,72.0,53.4,29.63,NNE,32,1.9,3.5,52,0.00,CLR,SCT,0.00,WeatherDisplay:10.37,2013-06-15 17:21:00,
2013-06-15 13:26:00,73.8,55.1,29.63,WSW,245,1.1,2.3,52,0.00,CLR,SCT,0.00,WeatherDisplay:10.37,2013-06-15 17:26:00,
2013-06-15 13:31:00,73.5,55.3,29.62,NNW,342,1.2,4.6,53,0.00,CLR,SCT,0.00,WeatherDisplay:10.37,2013-06-15 17:31:00,
2013-06-15 13:36:00,72.9,53.2,29.63,South,184,1.9,4.6,50,0.00,CLR,SCT,0.00,WeatherDisplay:10.37,2013-06-15 17:36:00,
2013-06-15 13:41:00,73.4,50.2,29.63,NW,314,0.9,2.3,44,0.00,CLR,SCT,0.00,WeatherDisplay:10.37,2013-06-15 17:41:00,
2013-06-15 13:46:00,74.4,51.7,29.63,NNW,339,1.8,3.5,45,0.00,CLR,SCT,0.00,WeatherDisplay:10.37,2013-06-15 17:46:00,
2013-06-15 13:51:00,74.4,52.3,29.62,NW,319,2.5,3.5,46,0.00,CLR,SCT,0.00,WeatherDisplay:10.37,2013-06-15 17:51:00,
2013-06-15 13:56:00,73.5,54.8,29.62,ENE,66,1.7,4.0,52,0.00,CLR,SCT,0.00,WeatherDisplay:10.37,2013-06-15 17:56:00,
2013-06-15 14:01:00,73.9,53.5,29.62,North,360,1.0,3.5,49,0.00,CLR,SCT,0.00,WeatherDisplay:10.37,2013-06-15 18:01:00,
2013-06-15 14:06:00,75.3,52.5,29.62,North,355,1.9,3.5,45,0.00,CLR,SCT,0.00,WeatherDisplay:10.37,2013-06-15 18:06:00,
2013-06-15 14:11:00,74.9,50.9,29.61,WNW,296,1.7,3.5,43,0.00,CLR,SCT,0.00,WeatherDisplay:10.37,2013-06-15 18:11:00,
2013-06-15 14:16:00,73.9,51.8,29.61,SSE,157,0.1,1.1,46,0.00,CLR,SCT,0.00,WeatherDisplay:10.37,2013-06-15 18:16:00,
2013-06-15 14:21:00,73.5,53.7,29.61,SSE,157,1.3,2.3,50,0.00,CLR,SCT,0.00,WeatherDisplay:10.37,2013-06-15 18:21:00,
2013-06-15 14:26:00,72.8,54.7,29.61,SSE,165,0.4,1.1,53,0.00,CLR,SCT,0.00,WeatherDisplay:10.37,2013-06-15 18:26:00,
2013-06-15 14:31:00,74.3,51.6,29.60,North,355,2.8,4.0,45,0.00,CLR,SCT,0.00,WeatherDisplay:10.37,2013-06-15 18:31:00,
2013-06-15 14:36:00,75.4,51.3,29.60,West,266,0.8,2.3,43,0.00,CLR,SCT,0.00,WeatherDisplay:10.37,2013-06-15 18:36:00,
2013-06-15 14:41:00,75.7,53.4,29.60,NNW,336,0.7,2.3,46,0.00,CLR,SCT,0.00,WeatherDisplay:10.37,2013-06-15 18:41:00,
2013-06-15 14:46:00,76.0,54.9,29.60,NW,321,1.0,2.3,48,0.00,CLR,SCT,0.00,WeatherDisplay:10.37,2013-06-15 18:46:00,
2013-06-15 14:51:00,75.3,54.3,29.60,West,265,1.2,3.5,48,0.00,CLR,SCT,0.00,WeatherDisplay:10.37,2013-06-15 18:51:00,
2013-06-15 14:56:00,75.5,50.8,29.60,North,5,1.9,8.1,42,0.00,CLR,SCT,0.00,WeatherDisplay:10.37,2013-06-15 18:56:00,
2013-06-15 15:01:00,75.8,52.9,29.60,WNW,289,1.7,3.5,45,0.00,CLR,SCT,0.00,WeatherDisplay:10.37,2013-06-15 19:01:00,
2013-06-15 15:06:00,74.8,52.6,29.60,North,360,1.6,5.0,46,0.00,CLR,SCT,0.00,WeatherDisplay:10.37,2013-06-15 19:06:00,
2013-06-15 15:11:00,75.1,52.3,29.60,SSW,211,0.6,2.0,45,0.00,CLR,SCT,0.00,WeatherDisplay:10.37,2013-06-15 19:11:00,
2013-06-15 15:16:00,74.9,49.6,29.60,NNW,337,1.3,4.6,41,0.00,CLR,SCT,0.00,WeatherDisplay:10.37,2013-06-15 19:16:00,
2013-06-15 15:21:00,75.4,50.7,29.60,WNW,294,1.8,3.5,42,0.00,CLR,SCT,0.00,WeatherDisplay:10.37,2013-06-15 19:21:00,
2013-06-15 15:26:00,75.0,56.2,29.59,NE,40,1.2,2.3,52,0.00,CLR,SCT,0.00,WeatherDisplay:10.37,2013-06-15 19:26:00,
2013-06-15 15:31:00,75.2,49.2,29.60,SE,141,1.2,4.6,40,0.00,CLR,SCT,0.00,WeatherDisplay:10.37,2013-06-15 19:31:00,
2013-06-15 15:36:00,75.0,51.0,29.59,ENE,62,0.3,2.3,43,0.00,CLR,SCT,0.00,WeatherDisplay:10.37,2013-06-15 19:36:00,
2013-06-15 15:41:00,75.5,50.1,29.59,East,97,1.7,4.6,41,0.00,CLR,SCT,0.00,WeatherDisplay:10.37,2013-06-15 19:41:00,
2013-06-15 15:46:00,75.3,50.0,29.58,East,83,0.0,1.1,41,0.00,CLR,SCT,0.00,WeatherDisplay:10.37,2013-06-15 19:46:00,
2013-06-15 15:51:00,74.6,50.0,29.59,NW,323,0.7,5.8,42,0.00,CLR,SCT,0.00,WeatherDisplay:10.37,2013-06-15 19:51:00,
2013-06-15 15:56:00,74.5,49.9,29.58,NNE,24,1.5,4.0,42,0.00,CLR,SCT,0.00,WeatherDisplay:10.37,2013-06-15 19:56:00,
2013-06-15 16:01:00,74.6,51.2,29.58,NE,42,0.4,2.0,44,0.00,CLR,SCT,0.00,WeatherDisplay:10.37,2013-06-15 20:01:00,
2013-06-15 16:06:00,75.1,49.1,29.58,NNE,15,1.1,4.0,40,0.00,CLR,SCT,0.00,WeatherDisplay:10.37,2013-06-15 20:06:00,
2013-06-15 16:11:00,75.0,51.6,29.58,NE,46,0.0,3.5,44,0.00,CLR,SCT,0.00,WeatherDisplay:10.37,2013-06-15 20:11:00,
2013-06-15 16:16:00,74.5,49.9,29.58,NNW,334,1.9,6.9,42,0.00,CLR,SCT,0.00,WeatherDisplay:10.37,2013-06-15 20:16:00,
2013-06-15 16:21:00,74.3,48.4,29.58,NNW,327,3.4,3.5,40,0.00,CLR,SCT,0.00,WeatherDisplay:10.37,2013-06-15 20:21:00,
2013-06-15 16:26:00,74.3,49.7,29.58,NNW,329,1.4,4.6,42,0.00,CLR,SCT,0.00,WeatherDisplay:10.37,2013-06-15 20:26:00,
2013-06-15 16:31:00,74.1,50.2,29.58,WNW,295,0.0,1.1,43,0.00,CLR,SCT,0.00,WeatherDisplay:10.37,2013-06-15 20:31:00,
2013-06-15 16:36:00,73.9,50.0,29.58,North,10,0.8,2.3,43,0.00,CLR,SCT,0.00,WeatherDisplay:10.37,2013-06-15 20:36:00,
2013-06-15 16:41:00,73.5,53.7,29.58,North,10,0.1,1.1,50,0.00,CLR,SCT,0.00,WeatherDisplay:10.37,2013-06-15 20:41:00,
2013-06-15 16:46:00,73.2,52.9,29.58,ESE,109,0.0,0.0,49,0.00,CLR,SCT,0.00,WeatherDisplay:10.37,2013-06-15 20:46:00,
2013-06-15 16:51:00,73.0,51.6,29.58,NE,40,1.2,4.6,47,0.00,CLR,SCT,0.00,WeatherDisplay:10.37,2013-06-15 20:51:00,
2013-06-15 16:56:00,72.8,50.8,29.59,ENE,59,0.4,1.1,46,0.00,CLR,SCT,0.00,WeatherDisplay:10.37,2013-06-15 20:56:00,
2013-06-15 17:01:00,72.7,51.3,29.59,NE,56,0.0,1.1,47,0.00,CLR,SCT,0.00,WeatherDisplay:10.37,2013-06-15 21:01:00,
2013-06-15 17:06:00,72.8,52.0,29.59,NE,40,0.3,0.0,48,0.00,CLR,SCT,0.00,WeatherDisplay:10.37,2013-06-15 21:06:00,
2013-06-15 17:11:00,72.8,50.2,29.58,East,94,0.0,0.0,45,0.00,CLR,SCT,0.00,WeatherDisplay:10.37,2013-06-15 21:11:00,
2013-06-15 17:16:00,72.9,50.9,29.58,NE,36,0.6,4.6,46,0.00,CLR,SCT,0.00,WeatherDisplay:10.37,2013-06-15 21:16:00,
2013-06-15 17:21:00,72.9,52.1,29.58,NE,36,0.5,2.0,48,0.00,CLR,SCT,0.00,WeatherDisplay:10.37,2013-06-15 21:21:00,
2013-06-15 17:26:00,72.9,52.6,29.58,South,190,0.2,1.1,49,0.00,CLR,SCT,0.00,WeatherDisplay:10.37,2013-06-15 21:26:00,
2013-06-15 17:31:00,72.7,52.4,29.58,WNW,294,0.2,1.1,49,0.00,CLR,SCT,0.00,WeatherDisplay:10.37,2013-06-15 21:31:00,
2013-06-15 17:36:00,72.7,52.4,29.58,SSE,157,0.3,1.1,49,0.00,CLR,SCT,0.00,WeatherDisplay:10.37,2013-06-15 21:36:00,
2013-06-15 17:41:00,72.6,50.6,29.58,South,177,0.2,1.1,46,0.00,CLR,SCT,0.00,WeatherDisplay:10.37,2013-06-15 21:41:00,
2013-06-15 17:46:00,72.7,51.9,29.58,SSE,165,0.0,0.0,48,0.00,CLR,SCT,0.00,WeatherDisplay:10.37,2013-06-15 21:46:00,
2013-06-15 17:51:00,72.8,49.6,29.58,North,355,0.9,4.6,44,0.00,CLR,SCT,0.00,WeatherDisplay:10.37,2013-06-15 21:51:00,
2013-06-15 17:56:00,72.8,51.4,29.58,ENE,76,0.5,1.1,47,0.00,CLR,SCT,0.00,WeatherDisplay:10.37,2013-06-15 21:56:00,
2013-06-15 18:01:00,72.7,51.3,29.58,ENE,76,0.3,1.1,47,0.00,CLR,SCT,0.00,WeatherDisplay:10.37,2013-06-15 22:01:00,
2013-06-15 18:06:00,72.7,51.9,29.58,NNE,22,0.0,0.0,48,0.00,CLR,SCT,0.00,WeatherDisplay:10.37,2013-06-15 22:06:00,
2013-06-15 18:11:00,72.7,50.7,29.58,ENE,72,0.4,2.3,46,0.00,CLR,SCT,0.00,WeatherDisplay:10.37,2013-06-15 22:11:00,
2013-06-15 18:16:00,72.7,50.7,29.58,East,83,0.1,3.5,46,0.00,CLR,SCT,0.00,WeatherDisplay:10.37,2013-06-15 22:16:00,
2013-06-15 18:21:00,72.7,51.9,29.58,East,82,0.1,0.0,48,0.00,CLR,SCT,0.00,WeatherDisplay:10.37,2013-06-15 22:21:00,
2013-06-15 18:26:00,72.6,51.8,29.58,ENE,64,0.0,0.0,48,0.00,CLR,SCT,0.00,WeatherDisplay:10.37,2013-06-15 22:26:00,
2013-06-15 18:31:00,72.4,52.7,29.58,ENE,64,0.1,1.1,50,0.00,CLR,SCT,0.00,WeatherDisplay:10.37,2013-06-15 22:31:00,
2013-06-15 18:36:00,72.2,53.1,29.58,ENE,68,0.0,1.0,51,0.00,CLR,SCT,0.00,WeatherDisplay:10.37,2013-06-15 22:36:00,
2013-06-15 18:41:00,72.1,51.3,29.58,ENE,68,0.1,0.0,48,0.00,CLR,SCT,0.00,WeatherDisplay:10.37,2013-06-15 22:41:00,
2013-06-15 18:46:00,72.2,52.0,29.58,ENE,58,0.0,1.1,49,0.00,CLR,SCT,0.00,WeatherDisplay:10.37,2013-06-15 22:46:00,
2013-06-15 18:51:00,72.1,51.9,29.58,ENE,58,0.1,1.0,49,0.00,CLR,SCT,0.00,WeatherDisplay:10.37,2013-06-15 22:51:00,
2013-06-15 18:56:00,71.8,52.2,29.58,ENE,58,0.1,1.1,50,0.00,CLR,SCT,0.00,WeatherDisplay:10.37,2013-06-15 22:56:00,
2013-06-15 19:01:00,71.6,51.4,29.58,ENE,58,0.1,1.1,49,0.00,CLR,SCT,0.00,WeatherDisplay:10.37,2013-06-15 23:01:00,
2013-06-15 19:06:00,71.4,52.9,29.58,ENE,58,0.0,1.0,52,0.00,CLR,SCT,0.00,WeatherDisplay:10.37,2013-06-15 23:06:00,
2013-06-15 19:11:00,71.0,53.0,29.57,ENE,58,0.0,1.1,53,0.00,CLR,SCT,0.00,WeatherDisplay:10.37,2013-06-15 23:11:00,
2013-06-15 19:16:00,70.6,52.1,29.58,ENE,58,0.0,0.0,52,0.00,CLR,SCT,0.00,WeatherDisplay:10.37,2013-06-15 23:16:00,
2013-06-15 19:21:00,70.3,52.9,29.58,ENE,58,0.0,0.0,54,0.00,CLR,SCT,0.00,WeatherDisplay:10.37,2013-06-15 23:21:00,
2013-06-15 19:26:00,69.9,53.0,29.58,ENE,58,0.0,0.0,55,0.00,CLR,SCT,0.00,WeatherDisplay:10.37,2013-06-15 23:26:00,
2013-06-15 19:31:00,69.7,52.8,29.58,ENE,58,0.0,0.0,55,0.00,CLR,SCT,0.00,WeatherDisplay:10.37,2013-06-15 23:31:00,
2013-06-15 19:36:00,69.3,52.9,29.58,ENE,58,0.0,0.0,56,0.00,CLR,SCT,0.00,WeatherDisplay:10.37,2013-06-15 23:36:00,
2013-06-15 19:41:00,69.0,53.1,29.58,ENE,58,0.0,0.0,57,0.00,CLR,SCT,0.00,WeatherDisplay:10.37,2013-06-15 23:41:00,
2013-06-15 19:46:00,68.7,52.8,29.59,ENE,58,0.0,0.0,57,0.00,CLR,SCT,0.00,WeatherDisplay:10.37,2013-06-15 23:46:00,
2013-06-15 19:51:00,68.5,53.1,29.59,ENE,58,0.0,0.0,58,0.00,CLR,SCT,0.00,WeatherDisplay:10.37,2013-06-15 23:51:00,
2013-06-15 19:56:00,68.2,52.4,29.59,ENE,58,0.0,0.0,57,0.00,CLR,SCT,0.00,WeatherDisplay:10.37,2013-06-15 23:56:00,
2013-06-15 20:01:00,68.0,52.7,29.59,ENE,58,0.0,0.0,58,0.00,CLR,SCT,0.00,WeatherDisplay:10.37,2013-06-16 00:01:00,
2013-06-15 20:06:00,67.8,52.0,29.59,ENE,58,0.0,0.0,57,0.00,CLR,SCT,0.00,WeatherDisplay:10.37,2013-06-16 00:06:00,
2013-06-15 20:11:00,67.6,52.3,29.59,ENE,58,0.0,0.0,58,0.00,CLR,SCT,0.00,WeatherDisplay:10.37,2013-06-16 00:11:00,
2013-06-15 20:16:00,67.3,52.0,29.59,ENE,58,0.0,0.0,58,0.00,CLR,SCT,0.00,WeatherDisplay:10.37,2013-06-16 00:16:00,
2013-06-15 20:21:00,67.0,52.2,29.59,ENE,58,0.0,0.0,59,0.00,CLR,SCT,0.00,WeatherDisplay:10.37,2013-06-16 00:21:00,
2013-06-15 20:26:00,66.6,53.2,29.59,ENE,58,0.0,0.0,62,0.00,CLR,SCT,0.00,WeatherDisplay:10.37,2013-06-16 00:26:00,
2013-06-15 20:31:00,66.1,53.1,29.59,ENE,58,0.0,0.0,63,0.00,CLR,SCT,0.00,WeatherDisplay:10.37,2013-06-16 00:31:00,
2013-06-15 20:36:00,65.7,53.2,29.59,ENE,58,0.0,0.0,64,0.00,CLR,SCT,0.00,WeatherDisplay:10.37,2013-06-16 00:36:00,
2013-06-15 20:41:00,65.3,53.6,29.59,ENE,58,0.0,0.0,66,0.00,CLR,SCT,0.00,WeatherDisplay:10.37,2013-06-16 00:41:00,
2013-06-15 20:46:00,65.0,52.9,29.59,ENE,58,0.0,0.0,65,0.00,CLR,SCT,0.00,WeatherDisplay:10.37,2013-06-16 00:46:00,
2013-06-15 20:51:00,65.1,52.6,29.59,ENE,58,0.0,0.0,64,0.00,CLR,SCT,0.00,WeatherDisplay:10.37,2013-06-16 00:51:00,
2013-06-15 20:56:00,65.1,52.2,29.60,ENE,58,0.0,1.1,63,0.00,CLR,SCT,0.00,WeatherDisplay:10.37,2013-06-16 00:56:00,
2013-06-15 21:01:00,65.2,51.4,29.60,ENE,58,0.0,0.0,61,0.00,CLR,SCT,0.00,WeatherDisplay:10.37,2013-06-16 01:01:00,
2013-06-15 21:06:00,65.3,51.5,29.60,ENE,58,0.0,0.0,61,0.00,CLR,SCT,0.00,WeatherDisplay:10.37,2013-06-16 01:06:00,
2013-06-15 21:11:00,65.3,51.5,29.60,ENE,58,0.0,0.0,61,0.00,CLR,SCT,0.00,WeatherDisplay:10.37,2013-06-16 01:11:00,
2013-06-15 21:16:00,65.4,51.6,29.60,ENE,58,0.0,0.0,61,0.00,CLR,SCT,0.00,WeatherDisplay:10.37,2013-06-16 01:16:00,
2013-06-15 21:21:00,65.3,51.9,29.60,ENE,58,0.0,0.0,62,0.00,CLR,SCT,0.00,WeatherDisplay:10.37,2013-06-16 01:21:00,
2013-06-15 21:26:00,65.0,52.5,29.61,ENE,58,0.0,1.1,64,0.00,CLR,SCT,0.00,WeatherDisplay:10.37,2013-06-16 01:26:00,
2013-06-15 21:31:00,64.9,52.0,29.61,ENE,58,0.0,0.0,63,0.00,CLR,SCT,0.00,WeatherDisplay:10.37,2013-06-16 01:31:00,
2013-06-15 21:36:00,64.6,52.1,29.61,ENE,58,0.0,0.0,64,0.00,CLR,SCT,0.00,WeatherDisplay:10.37,2013-06-16 01:36:00,
2013-06-15 21:41:00,64.4,52.0,29.61,ENE,58,0.0,0.0,64,0.00,CLR,SCT,0.00,WeatherDisplay:10.37,2013-06-16 01:41:00,
2013-06-15 21:46:00,64.1,51.7,29.61,ENE,58,0.0,0.0,64,0.00,CLR,SCT,0.00,WeatherDisplay:10.37,2013-06-16 01:46:00,
2013-06-15 21:51:00,64.0,51.6,29.62,ENE,58,0.0,0.0,64,0.00,CLR,SCT,0.00,WeatherDisplay:10.37,2013-06-16 01:51:00,
2013-06-15 21:56:00,63.7,51.7,29.62,ENE,58,0.0,0.0,65,0.00,CLR,SCT,0.00,WeatherDisplay:10.37,2013-06-16 01:56:00,
2013-06-15 22:01:00,63.5,51.5,29.62,ENE,58,0.0,0.0,65,0.00,CLR,SCT,0.00,WeatherDisplay:10.37,2013-06-16 02:01:00,
2013-06-15 22:06:00,63.2,52.9,29.62,ENE,58,0.0,0.0,69,0.00,CLR,SCT,0.00,WeatherDisplay:10.37,2013-06-16 02:06:00,
2013-06-15 22:11:00,62.9,53.4,29.62,ENE,58,0.0,0.0,71,0.00,CLR,SCT,0.00,WeatherDisplay:10.37,2013-06-16 02:11:00,
2013-06-15 22:16:00,62.5,52.2,29.62,ENE,58,0.0,0.0,69,0.00,CLR,SCT,0.00,WeatherDisplay:10.37,2013-06-16 02:16:00,
2013-06-15 22:21:00,62.3,52.8,29.62,ENE,58,0.0,0.0,71,0.00,CLR,SCT,0.00,WeatherDisplay:10.37,2013-06-16 02:21:00,
2013-06-15 22:26:00,62.1,51.8,29.63,ENE,58,0.0,0.0,69,0.00,CLR,SCT,0.00,WeatherDisplay:10.37,2013-06-16 02:26:00,
2013-06-15 22:31:00,62.0,52.9,29.63,ENE,58,0.0,0.0,72,0.00,CLR,SCT,0.00,WeatherDisplay:10.37,2013-06-16 02:31:00,
2013-06-15 22:36:00,61.9,51.6,29.63,ENE,58,0.0,0.0,69,0.00,CLR,SCT,0.00,WeatherDisplay:10.37,2013-06-16 02:36:00,
2013-06-15 22:41:00,61.7,52.2,29.62,ENE,58,0.0,0.0,71,0.00,CLR,SCT,0.00,WeatherDisplay:10.37,2013-06-16 02:41:00,
2013-06-15 22:46:00,61.4,52.3,29.62,ENE,58,0.0,0.0,72,0.00,CLR,SCT,0.00,WeatherDisplay:10.37,2013-06-16 02:46:00,
2013-06-15 22:51:00,61.2,52.1,29.62,ENE,58,0.0,0.0,72,0.00,CLR,SCT,0.00,WeatherDisplay:10.37,2013-06-16 02:51:00,
2013-06-15 22:56:00,60.9,51.0,29.63,ENE,58,0.0,0.0,70,0.00,CLR,SCT,0.00,WeatherDisplay:10.37,2013-06-16 02:56:00,
2013-06-15 23:01:00,60.7,51.2,29.63,ENE,58,0.0,0.0,71,0.00,CLR,SCT,0.00,WeatherDisplay:10.37,2013-06-16 03:01:00,
2013-06-15 23:06:00,60.5,52.2,29.63,ENE,58,0.0,0.0,74,0.00,CLR,SCT,0.00,WeatherDisplay:10.37,2013-06-16 03:06:00,
2013-06-15 23:11:00,60.3,50.9,29.63,ENE,58,0.0,0.0,71,0.00,CLR,SCT,0.00,WeatherDisplay:10.37,2013-06-16 03:11:00,
2013-06-15 23:16:00,60.3,50.5,29.63,ENE,58,0.0,0.0,70,0.00,CLR,SCT,0.00,WeatherDisplay:10.37,2013-06-16 03:16:00,
2013-06-15 23:21:00,60.2,50.8,29.63,ENE,58,0.0,0.0,71,0.00,CLR,SCT,0.00,WeatherDisplay:10.37,2013-06-16 03:21:00,
2013-06-15 23:26:00,60.1,50.7,29.63,ENE,58,0.0,0.0,71,0.00,CLR,SCT,0.00,WeatherDisplay:10.37,2013-06-16 03:26:00,
2013-06-15 23:31:00,60.1,52.1,29.63,ENE,58,0.0,0.0,75,0.00,CLR,SCT,0.00,WeatherDisplay:10.37,2013-06-16 03:31:00,
2013-06-15 23:36:00,60.0,50.6,29.63,ENE,58,0.0,0.0,71,0.00,CLR,SCT,0.00,WeatherDisplay:10.37,2013-06-16 03:36:00,
2013-06-15 23:41:00,60.3,50.1,29.64,ENE,58,0.0,0.0,69,0.00,CLR,SCT,0.00,WeatherDisplay:10.37,2013-06-16 03:41:00,
2013-06-15 23:46:00,60.4,49.8,29.64,ENE,58,0.0,0.0,68,0.00,CLR,SCT,0.00,WeatherDisplay:10.37,2013-06-16 03:46:00,
2013-06-15 23:51:00,60.7,50.1,29.64,ENE,58,0.0,0.0,68,0.00,CLR,SCT,0.00,WeatherDisplay:10.37,2013-06-16 03:51:00,
2013-06-15 23:56:00,60.8,50.2,29.64,ENE,58,0.0,0.0,68,0.00,CLR,SCT,0.00,WeatherDisplay:10.37,2013-06-16 03:56:00,